Погода Кокпекты

Погода Кокпекты : погода сейчас, прогноз погоды и архив. Всё, что Вы хотите узнать о погоде Кокпекты!

Поиск расширенной информации на нашем сайте:

Другие новости

Новости СМИ2

Главная страница сайта

Новости сайта

03.07.2017

Напоминаем, что на нашем специализированном сайте Метеоцентр.Азия вы можете получить высокодетализированные автоматические прогнозы погоды по пунктам России, СНГ и мира в авиационном формате (включающие направление и скорость ветра, видимость, явления погоды, количество и форму облачности, нижнюю и верхнюю границу облачности).


Погода Кокпекты - сегодня

Время (UTC), дата Ветер
(°,м/с) 
Видим.   Явления Облачность Т
(°С)
Тd
(°С)
f(%) Тe
(°С)
Pmin
(гПа)
dP
(гПа)
Po
(мм)
O2
(г/м3)
Тmin Tmax R s Состояние
почвы
21 23.05.18 340 (С) н/о    8/4 600 м кучево-дожд., средняя 
[Cb calv|Ac trans]
+3.1 -0.9 75 1014.6  2.1  715  285           
00 24.05.18 020 (С) 20000 м  слаб. ливневой дождь  10/10 600 м кучево-дожд. 
[Cb calv]
+3.5 +1.2 85 1019.4  4.7  718  285           
03 24.05.18 340 (С) 20000 м  {ливн. осадки}  9/9 600 м кучево-дожд. 
[Cb calv]
+4 +1.8 86 +1  1024.4  4.8  722  286           
09 24.05.18 350 (С) 20000 м    9/9 600 м кучево-дожд. 
[Cb calv]
+8.7 +1.6 61 +7  1026.6  0.5  724  282           
12 24.05.18 330 (СЗ) 20000 м    9/8 600 м кучево-дожд., средняя 
[Cb calv|Ac trans]
+9.2 +1.6 59 +9  1026.5  724  282           
15 24.05.18 050 (СВ) 20000 м    9/5 600 м кучево-дожд., средняя 
[Cb calv|Ac trans]
+6 +0.5 68 +7  1027  -0.2  724  285    +9.4       
18 24.05.18 050 (СВ) н/о    9/9 600 м кучево-дожд. 
[Cb calv]
+5.8 +1.4 73 +6  1026.9  -0.1  724  285    +9.4       
21 24.05.18 060 (СВ) н/о    10/10 600 м кучево-дожд. 
[Cb calv]
+5.5 +1.8 77 +6  1026.8  -0.2  724  286           
00 25.05.18 170 (Ю) 20000 м    10/10 600 м кучево-дожд. 
[Cb calv]
+5.6 +1.7 76 +5  1024.5  -2.1  722  285           
03 25.05.18 170 (Ю) 20000 м    9/9 600 м кучево-дожд. 
[Cb calv]
+7.2 +1.7 68 +6  1023.6  -0.5  722  283           
06 25.05.18 180 (Ю) 4000 м  слаб. ливневой дождь  10/10 600 м кучево-дожд. 
[Cb calv]
+12.1 +7 71 +12  1021.4  -1  721  277  +4         
09 25.05.18 290 (З) 20000 м  {ливн. осадки}  9/8 600 м кучево-дожд., средняя 
[Cb calv|Ac trans]
+16.4 +8.3 59 +16  1020.2  -0.2  721  273           
12 25.05.18 240 (ЮЗ) 4000 м  слаб. ливневой дождь  10/10 600 м кучево-дожд. 
[Cb calv]
+11.8 +8.2 79 +12  1022.1  0.8  722  277           
15 25.05.18 200 (Ю) 4000 м  слаб. ливневой дождь  10/10 600 м кучево-дожд. 
[Cb calv]
+9.5 +6.8 83 +10  1024  1.3  722  280    +16.7       
18 25.05.18 190 (Ю) н/о  {ливн. осадки}  9/9 600 м кучево-дожд. 
[Cb calv]
+8.2 +5.6 84 +9  1023.6  -0.6  722  281    +16.7     
21 25.05.18 тихо ()   н/о    9/6 600 м кучево-дожд., средняя 
[Cb calv|Ac trans]
+6.4 +4.1 85 +6  1023.1  -0.9  721  283           
00 26.05.18 тихо ()   20000 м    9/5 600 м кучево-дожд., средняя 
[Cb calv|Ac trans]
+5.2 +2.8 84 +5  1023.4  721  285           
03 26.05.18 170 (Ю) 20000 м    5/3 600 м кучево-дожд., средняя 
[Cb calv|Ac trans]
+13.1 +6.1 62 +13  1021.4  -0.2  721  276           
06 26.05.18 180 (Ю) 20000 м    3/0 средняя 
[Ac trans]
+19.8 +5.7 40 +20  1017.9  -2  720  269  +5.2    0.0     
09 26.05.18 200 (Ю) 20000 м    ясно 
+23.2 +6.4 34 +23  1015  -2.1  718  266           
12 26.05.18 210 (ЮЗ) 20000 м    ясно 
+24.4 +9 38 +25  1013.1  -1.5  717  264           
15 26.05.18 190 (Ю) 20000 м    ясно 
+14.8 +6.1 56 +16  1014.7  -0.4  717  273    +24.6       
18 26.05.18 200 (Ю) н/о    ясно 
+11.3 +5.4 67 +12  1014.7  -0.7  716  276    +24.6       
21 26.05.18 тихо ()   н/о    3/0 средняя 
[Ac trans]
+9 +4.1 71 +9  1014.2  -0.9  716  278           
00 27.05.18 тихо ()   20000 м    3/0 средняя 
[Ac trans]
+8.2 +4.2 76 +8  1012.9  -1.4  714  279           
Время (UTC), дата Ветер
(°,м/с) 
Видим.   Явления Облачность Т
(°С)
Тd
(°С)
f(%) Тe
(°С)
Pmin
(гПа)
dP
(гПа)
Po
(мм)
O2
(г/м3)
Тmin Tmax R s Состояние
почвы

Для получения пояснительной информации подведите курсор к названию столбца.

ПОГОДА Кокпекты - архив

Всё, что Вы хотите узнать о погоде Кокпекты - удобно и подробно!

Выберите нужную дату (начиная с 1 января 2015* года) и нажмите кнопку "Найти".
Будут отображены архивные сводки погоды по пункту Кокпекты, начиная с указанной даты.


Отображать данные в формате CSV (для использования в таблицах Excel)


Внимание! Наш архив погоды предназначен исключительно для личного некоммерческого использования в познавательных целях. Если Вам необходимы официальные справки о состоянии погоды (для производственных, юридических, коммерческих и т.п. целей), обращайтесь в органы Росгидромета.

*Примечание: данная дата относится к архиву по метеостанциям СССР (Россия, СНГ, Балтия).
Архив по метеостанциям Зарубежной Европы и Азии (кроме Китая) хранится 10 дней, по другим регионам земного шара (Китай, Африка, Америка, Австралия, Океания) - 1 день.

Кокпекты - район местоположения метеостанции


Название, широта, долгота, высота метеостанции:
Кокпекты 48.8°ш. 82.4°д. 512 м над ур. моря [Казахстан]

Дополнительная информация

В oтличие oт бoльшинства пoгoдных сайтoв мы публикуем пoдрoбную метеoинфoрмацию в детальнoм прoфессиoнальнoм фoрмате.

Характеристики температуры и влажнoсти вoздуха измеряются на высoте 2 м в тени вдали oт зданий и деревьев.
Скoрoсть ветра измеряется на высoте 10 м (на урoвне рoста челoвека скoрoсть ветра ниже в 1.5-2 раза). Если метеoстанция нахoдится в гoрoде или в лесу, тo скoрoсть ветра занижена на 2-4 м/с пo сравнению с oткрытым местoм. Скoрoсть ветра над акватoриями крупных рек и oзёр, а также на вершинах хoлмoв на 2-5 м/с выше, чем в oбычных услoвиях.
Атмoсфернoе давление в разных тoчках местнoсти мoжет значительнo oтличаться oт давления на метеoстанции, в зависимoсти oт услoвий рельефа (при пoдъёме на 10 м давление пoнижается примернo на 1 мм рт.ст.).